Regional Weather Roundup
Issued by NWS

Home | Current Version | Previous Version | Text Only | Print | Product List | Glossary On
Versions: 1 2 3 4 5 6 7 8 9 10 11 12 13 14 15 16 17 18 19 20 21 22 23 24 25 26 27 28 29 30 31 32 33 34 35 36 37 38 39 40 41 42 43 44 45 46 47 48 49 50
000
ASUS44 KEWX 280910
RWRTX
SOUTH TEXAS REGIONAL WEATHER ROUNDUP
NATIONAL WEATHER SERVICE AUSTIN/SAN ANTONIO TX
300 AM CST FRI NOV 28 2014

NOTE: "FAIR" INDICATED FEW OR NO CLOUDS BELOW 12,000 FEET WITH NO
SIGNIFICANT WEATHER AND/OR OBSTRUCTIONS TO VISIBILITY.

* - THESE STATIONS ARE NOT NWS OR FAA STATIONS...AND ARE NOT SUBJECT
    TO NWS AND FAA QUALITY CONTROL.

TXZ171-172-183>190-281000-
TEXAS HILL COUNTRY AND EDWARDS PLATEAU

CITY           SKY/WX    TMP DP  RH WIND       PRES   REMARKS
JUNCTION       CLEAR     43  33  68 CALM      30.31F
*LLANO         CLEAR     36  32  87 CALM      30.36S
BURNET         CLEAR     42  32  67 CALM      30.35S
*HORSESHOE BAY CLEAR     42  35  75 CALM      30.33S
*KERRVILLE     CLEAR     34  32  92 CALM      30.32F
*FREDERICKSBRG CLEAR     40  33  77 W5        30.32F WCI  37
*ROCKSPRINGS   PTCLDY    46  39  76 MISG      30.33F
*BOERNE STAGE  MOCLDY    43  34  70 S3        30.34F
*CASTROVILLE   CLEAR     40  34  79 NE5       30.36F WCI  37
HONDO          CLEAR     39  32  76 N7        30.36F WCI  34
*UVALDE        CLOUDY    48  41  77 NE6       30.34F WCI  45
DEL RIO        CLEAR     44  38  79 NE3       30.32F
LAUGHLIN AFB   CLEAR     42  39  86 NE3       30.32F
CARRIZO SPRGS  CLEAR     41  37  87 CALM      30.32F
$$

TXZ173-191>194-202-209-217>225-228-281000-
CENTRAL AND SOUTH CENTRAL TEXAS

CITY           SKY/WX    TMP DP  RH WIND       PRES   REMARKS
GEORGETOWN     CLEAR     37  30  75 SW3       30.35S
AUSTIN/BERGSTM CLEAR     34  32  92 CALM      30.35F
AUSTIN/MABRY   CLEAR     43  35  73 CALM      30.35F
*AUSTIN/EXEC   PTCLDY    43  34  70 CALM      30.35S
*LAGO VISTA    CLEAR     50  30  45 S5        30.33F WCI  49
SAN MARCOS     CLEAR     39  32  75 CALM      30.35F
NEW BRAUNFELS  CLEAR     42  36  79 CALM      30.33F
RANDOLPH AFB   CLEAR     41  36  81 CALM      30.33F HAZE
PT SAN ANTONIO CLEAR     41  38  87 NW5       30.32F WCI  38
SAN ANTONIO    CLEAR     43  37  79 NW6       30.34F WCI  39
STINSON FIELD  CLEAR     43  39  86 N6        30.33F WCI  39
*PLEASANTON    CLEAR     42  39  90 CALM      30.34F
*LA GRANGE     CLEAR     41  39  91 CALM      30.34S
*GIDDINGS      CLEAR     41  35  80 CALM      30.38F
*GONZALES      CLEAR     43  39  87 CALM      30.34S
$$

TXZ163>164-176>182-195>201-210>213-226-227-235-281000-
SOUTHEAST TEXAS

CITY           SKY/WX    TMP DP  RH WIND       PRES   REMARKS
COLLEGE STN    CLEAR     43  34  70 E3        30.37S
*BRYAN         CLEAR     39  35  85 CALM      30.38S
*CALDWELL      CLEAR     37  36  93 CALM      30.39S
*CROCKETT      CLEAR     45  36  70 SE6       30.40F WCI  41
*BRENHAM       CLEAR     46  36  68 CALM      30.37S HAZE
HUNTSVILLE     CLEAR     43  35  73 S3        30.37S
CONROE         CLEAR     36  34  92 CALM      30.39S
HOUSTON BUSH   CLEAR     40  38  93 CALM      30.38S
HOUSTON HOBBY  CLEAR     43  41  93 NE3       30.37F
*HOUSTON SW AP CLEAR     38  38 100 CALM      30.39R
PEARLAND       CLEAR     42  39  89 E9        30.39F WCI  37
HOUSTON HOOKS  CLEAR     40  38  93 CALM      30.38S
ELLINGTON FLD  CLEAR     48  37  66 CALM      30.39S
SUGAR LAND     CLEAR     42  39  89 CALM      30.37S
*HOUSTON EXEC  MOCLDY    41  37  87 CALM      30.38F
*CLEVELAND MUN CLEAR     36  36 100 CALM      30.40S
*WHARTON       CLEAR     42  39  89 E3        30.36F
*COLUMBUS      FAIR      40  38  93 CALM      30.35S
$$

TXZ214>216-236>238-281000-
THE UPPER TEXAS COAST

CITY           SKY/WX    TMP DP  RH WIND       PRES   REMARKS
*ORANGE        CLEAR     41  38  89 CALM      30.42S
PORT ARTHUR    CLEAR     45  39  79 NE5       30.40R WCI  43
GALVESTON      CLEAR     55  46  71 SE5       30.38F
ANGLETON       CLEAR     40  40 100 CALM      30.37F
*BAY CITY        N/A     44  43  97 CALM      30.35F
PALACIOS       CLEAR     48  45  89 E7        30.35F WCI  45
$$

TXZ229>234-239>247-281000-
TEXAS COASTAL BEND AND RIO GRANDE PLAINS

CITY           SKY/WX    TMP DP  RH WIND       PRES   REMARKS
VICTORIA       CLEAR     47  44  90 E5        30.35F WCI  45
*BEEVILLE      CLEAR     49  49 100 NE5       30.33F WCI  47
ROCKPORT       CLEAR     58  56  93 E3        30.33F
*PORT ARANSAS  CLEAR     63  59  87 CALM      30.32F
*PORT LAVACA   CLEAR     50  49  96 E5        30.34F FOG     WCI  49
*INGLESIDE     CLEAR     56  55  94 CALM      30.32F
CORPUS CHRISTI PTCLDY    56  54  93 SE6       30.32F
CORPUS NAS     CLEAR     59  59 100 E5        30.32F
*ROBSTOWN      NOT AVBL
ALICE          CLEAR     50  48  93 CALM      30.33F
KINGSVILLE NAS PTCLDY    52  52 100 NW5       30.33F
COTULLA        CLEAR     50  46  86 E5        30.33F WCI  48
*FAITH RANCH   CLEAR     50  50 100 SE6       30.32F WCI  48
LAREDO         CLEAR     54  54 100 SE6       30.35F
$$

TXZ248>255-281000-
DEEP SOUTH TEXAS

CITY           SKY/WX    TMP DP  RH WIND       PRES   REMARKS
BROWNSVILLE    FOG       51  50  96 E3        30.32F VSB 3/4
PORT ISABEL    FOG       53  52  96 CALM      30.32F VSB 1
*SOUTH PADRE   CLEAR    N/A N/A N/A CALM      30.32F
HARLINGEN      FOG       52  52 100 CALM      30.32F VSB 1/4
*HEBBRONVILLE  FOG       52  52  98 CALM      30.34S VSB 1/2
MCALLEN        PTCLDY    53  51  93 CALM      30.33F FOG
*WESLACO       CLEAR     55  52  89 CALM      30.32F
FALFURRIAS     CLOUDY    50  49  94 CALM      30.33F
EDINBURG       CLEAR     53  51  93 CALM      30.33F
*ZAPATA        CLEAR     52  52 100 CALM      30.31F
$$

TXZ213>215-236>238-242>244-246-247-251-254-255-281000-
CMAN STATIONS

STATION/POSITION TIME  TEMP    WIND        PRES    WAVE
                       AIR SEA DIR/SP/G            HT/PER
                 (UTC) (F)     (DEG/KT/KT) (MB)    (FT/S)
SABINE PASS      0900   46 60   70/  6/  8 1028.9
SEA RIM ST PARK  0900   45      70/  6/  7 1029.6
NORTH JETTY/GLS  0900   59 60  140/  7/  7   N/A
EAGLE POINT      0900   55 59   80/  5/  5 1028.7
MORGANS POINT    0900   51      80/  4/  5 1028.6
MISSION/ARANSAS  0800   58      50/  5     1029.0
PORT O`CONNOR    0900           90/  8/  8   N/A
PORT ARANSAS     0900   66 63  100/  5/  6 1027.2
MALAQUITE BEACH  0900   66 65  100/  6/  7 1026.1
BAFFIN BAY       0900   64 74  190/  4/  5 1026.7
PORT ISABEL      0900   60 64   CALM  /  1 1026.9
$$

GMZ080-GMZ150>470-281000-
OFFSHORE BUOY REPORTS

STATION/POSITION TIME  TEMP    WIND        PRES    WAVE
                       AIR SEA DIR/SP/G            HT/PER
                 (UTC) (F)     (DEG/KT/KT) (MB)    (FT/S)
20 E GALVESTON   0900   60 61  120/ 10/ 12 1028.1    1/ 3
90 E PT ARANSAS  0900   68 72  130/  8/ 12 1028.0    3/ 5
35 NE PT MANSFLD 0900   71 73  180/ 12/ 14 1026.4    3/ 6
200 E PT ISABEL  0900   69 74   80/  8/ 10 1027.3    3/ 6
$$



USA.gov is the U.S. government's official web portal to all federal, state and local government web resources and services.